Location: Da
(13.1509°N, 4.9466°W)
Time: 12:57:19
(UTC+00:00)

Daily predictions for brighter satellites

Satellite Brightness Start Highest point End
(mag) Time Altitude Azimuth Time Altitude Azimuth Time Altitude Azimuth
Meteor 2-5 Rocket 3.7 18:43:55 10° N 18:49:22 62° E 18:54:48 10° SSE
Cosmos 1745 Rocket 4.1 18:43:42 10° N 18:49:46 58° E 18:55:46 10° SSE
USA 215 4.3 18:44:02 10° SSE 18:50:16 48° SW 18:56:30 10° NW
NOAA 11 4.4 18:45:53 10° SSE 18:51:04 48° ENE 18:56:16 10° N
CZ-2D R/B 4.1 18:47:59 10° SE 18:51:17 28° ENE 18:54:34 10° NNE
YAOGAN 6 4.2 18:47:58 10° S 18:51:20 40° W 18:54:44 10° NNW
FALCON 9 R/B 4.5 18:45:05 10° NW 18:51:26 40° NNE 19:23:42 11° E
Cosmos 2251 Rocket 3.6 18:46:48 10° S 18:52:07 82° ESE 18:57:28 10° NNE
Cosmos 1726 3.8 18:51:12 10° SE 18:53:12 14° E 18:55:12 10° ENE
FALCON 9 DEB 3.1 18:53:43 10° SSW 18:57:11 68° SE 19:00:39 10° NE
Delta 2 Rocket 4.3 18:53:48 10° NW 18:57:45 37° NE 19:02:11 10° ESE
YAOGAN 1 3.0 18:53:44 10° SSE 18:57:48 42° ENE 19:01:52 10° N
STARLINK-1066 4.1 18:55:42 10° N 18:58:23 26° NE 19:01:04 10° ESE
STARLINK-1081 4.1 18:56:09 10° N 18:58:49 26° NE 19:01:29 10° ESE
STARLINK-1070 4.0 18:56:36 10° N 18:59:17 26° NE 19:01:55 10° ESE
STARLINK-1069 4.0 18:57:00 10° N 18:59:44 27° NE 19:02:24 10° ESE
STARLINK-1085 4.0 18:57:26 10° N 19:00:11 27° NE 19:02:50 11° ESE
STARLINK-1086 4.0 18:57:55 10° N 19:00:38 27° NE 19:03:13 11° ESE
STARLINK-1095 3.9 18:58:21 10° N 19:01:05 28° NE 19:03:39 11° ESE
STARLINK-1077 3.9 18:58:47 10° N 19:01:31 28° NE 19:04:04 11° ESE
GPS 2-15 Rocket1 4.1 18:57:10 10° WNW 19:01:50 41° N 19:06:27 10° ENE
STARLINK-1075 3.9 18:59:14 10° N 19:01:59 29° NE 19:04:31 11° ESE
STARLINK-29 3.0 18:58:55 10° SW 19:02:04 80° NW 19:05:14 10° NNE
STARLINK-1093 3.9 18:59:37 10° N 19:02:25 29° NE 19:04:59 11° ESE
BREEZE M DEB (TANK) 2.8 19:00:05 10° WSW 19:02:29 36° NW 19:04:36 10° NNE
STARLINK-1074 3.9 19:00:05 10° N 19:02:53 30° NE 19:05:26 12° ESE
STARLINK-1087 3.8 19:00:33 10° N 19:03:20 30° NE 19:05:49 12° ESE
STARLINK-1088 3.8 19:01:00 10° NNW 19:03:48 30° NE 19:06:15 12° ESE
ADEOS Rocket 3.9 18:58:22 10° N 19:04:02 51° WNW 19:09:21 10° SSW
STARLINK-1115 3.8 19:01:23 10° NNW 19:04:14 31° NE 19:06:44 12° ESE
STARLINK-1076 3.8 19:01:50 10° NNW 19:04:41 32° NE 19:07:10 12° ESE
STARLINK-1092 3.7 19:02:16 10° NNW 19:05:08 32° NE 19:07:36 13° ESE
STARLINK-1080 3.7 19:02:44 10° NNW 19:05:35 32° NE 19:07:58 13° ESE
STARLINK-1090 3.7 19:03:11 10° NNW 19:06:02 33° NE 19:08:25 13° ESE
STARLINK-1089 3.7 19:03:38 10° NNW 19:06:29 33° NE 19:08:51 13° ESE
STARLINK-1107 3.6 19:04:05 10° NNW 19:06:56 34° NE 19:09:17 14° ESE
SOZ 4.0 19:05:21 10° NW 19:07:20 83° ENE 19:10:17 10° SE
GOES 2 Rocket 4.2 19:03:46 10° NW 19:07:21 27° NNE 19:10:42 12° ENE
Cosmos 1603 4.2 19:03:20 10° SSW 19:08:56 65° WNW 19:14:31 10° N
Milstar 3 Cent rocket 3.8 19:02:03 10° WNW 19:09:08 73° SSW 19:24:37 10° SE
Cosmos 1331 Rocket 3.9 19:07:10 10° N 19:12:18 78° ENE 19:17:28 10° SSE
Cosmos 1758 3.7 19:08:49 10° S 19:12:52 69° W 19:16:56 10° N
Ariane Rocket 4.4 19:10:54 13° ESE 19:13:15 17° ENE 19:16:30 10° NNE
SL-14 R/B 3.4 19:11:00 10° N 19:14:50 49° E 19:18:38 10° SSE
HJ-1C 4.5 19:16:31 17° ESE 19:18:13 24° ENE 19:21:00 10° NNE
Okean-O 4.3 19:15:58 10° SSW 19:20:01 36° W 19:24:04 10° NW
Cosmos 2315 Rocket 4.4 19:14:02 10° S 19:20:15 70° W 19:26:33 10° N
Cosmos 1626 Rocket 4.1 19:17:04 10° NNE 19:21:01 34° E 19:24:56 10° SSE
Aureole 3 3.2 19:19:09 10° S 19:22:42 80° E 19:27:08 10° N
Cosmos 304 Rocket 4.2 19:20:43 10° NNW 19:25:26 65° WSW 19:30:10 10° S
CZ-3B Rocket 1.8 19:22:28 10° WSW 19:26:12 53° SSE 19:28:29 22° E
ATLAS 5 CENTAUR R/B 1.2 19:23:50 10° SSW 19:27:52 70° ESE 19:31:53 10° NNE
CZ-4 R/B 2.5 19:24:33 10° S 19:28:16 44° W 19:31:57 10° NNW
STARLINK-1125 4.5 19:24:39 10° NNW 19:28:21 32° NE 19:29:42 25° E
H-2A R/B 3.6 19:20:03 10° WNW 19:30:37 25° NNW 19:33:42 12° NE
SL-24 R/B - RUBIN 2 3.8 19:25:54 10° SSW 19:30:40 79° ESE 19:36:08 10° NNE
Cosmos 1602 Rocket 4.1 19:27:42 10° NNE 19:31:42 35° E 19:33:49 22° SE
STARLINK-1109 4.3 19:29:32 10° NNW 19:33:22 36° NE 19:34:30 30° E
Cosmos 2297 3.6 19:28:20 10° N 19:34:00 72° ENE 19:39:42 10° SSE
Cosmos 1939 Rocket 3.7 19:30:26 10° S 19:34:18 50° W 19:38:07 10° NNW
USA 234 3.4 19:27:52 10° NNE 19:34:22 76° NW 19:40:53 10° SW
Hubble Space Telescope 2.4 19:32:58 10° W 19:36:36 30° NNW 19:39:48 12° NE
STARLINK-1091 4.1 19:34:23 10° NNW 19:38:18 41° NE 19:39:15 35° E
Cosmos 614 Rocket 3.9 19:33:18 10° S 19:38:28 66° ESE 19:43:38 10° NNE
ATLAS 2AS CENTAUR RB 3.5 18:40:39 10° W 19:40:20 86° S 19:44:15 27° E
CSL-04 Debris 4.4 19:35:34 10° S 19:41:01 71° WSW 19:46:29 10° NNW
Cosmos 1626 2.7 19:37:40 10° NNW 19:41:17 59° W 19:44:55 10° S
STARLINK-1072 3.8 19:39:19 10° NNW 19:43:19 49° NE 19:44:08 42° E
Cosmos 1709 Rocket 4.0 19:40:14 10° N 19:46:21 83° W 19:52:26 10° S
deb Ariane 3.7 19:41:05 10° WSW 19:46:55 37° S 19:47:43 32° SSE
TSX-5 4.2 19:44:33 10° N 19:47:18 36° NE 19:47:18 36° NE
STARLINK-1096 3.7 19:44:15 10° NNW 19:48:18 57° NE 19:48:56 51° E
Cosmos 1953 3.5 19:44:51 10° SSW 19:48:37 44° W 19:52:23 10° NNW
Cosmos 407 Rocket 3.3 19:44:42 10° S 19:49:52 71° ESE 19:54:59 10° NNE
Cosmos 2228 2.9 19:46:40 10° S 19:50:50 60° E 19:55:02 10° NNE
OAO 2 Rocket 4.2 19:46:41 10° WNW 19:51:34 43° SW 19:54:05 24° SSE
STARLINK-1079 3.5 19:49:08 10° NNW 19:53:14 67° NE 19:53:40 61° E
Cosmos 1606 Rocket 3.4 19:49:02 10° S 19:53:23 73° E 19:57:47 10° N
STARLINK-1116 3.4 19:54:06 10° NNW 19:58:13 78° NE 19:58:28 74° E
Cosmos 1943 Rocket 2.6 19:53:10 10° N 19:58:15 39° ENE 19:58:15 39° ENE
Cosmos 2369 Rocket 3.3 19:55:30 10° NNE 19:58:56 26° NE 19:58:56 26° NE
Cosmos 2074 Rocket 4.3 19:56:38 10° NNE 20:02:32 43° E 20:02:33 43° E
ARGOS Delta rocket 4.0 20:00:36 13° S 20:05:02 79° W 20:10:17 10° NNW
CZ-2C R/B 3.6 20:00:34 10° N 20:05:10 85° WNW 20:09:42 10° SSW
IRIDIUM 106 4.2 20:00:08 10° N 20:05:19 68° E 20:06:37 49° SSE
STARLINK-1094 3.6 20:04:01 10° NW 20:08:02 77° W 20:08:02 77° W
GPS 2-04 Rocket1 3.3 20:05:33 10° WSW 20:09:28 52° NNW 20:09:47 50° NNW
CZ-2C R/B 3.0 20:10:32 60° NE 20:10:32 60° NE 20:14:59 10° N
STARLINK-1117 3.9 20:09:02 10° NW 20:12:50 64° W 20:12:50 64° W
STARLINK-1078 4.3 20:14:02 10° NW 20:17:36 53° W 20:17:36 53° W
ATLAS 3B CENTAUR R/B 2.7 20:12:27 10° WNW 20:18:14 33° SW 20:18:26 33° SSW
H-2A R/B 2.0 20:18:32 67° S 20:19:17 89° WSW 20:24:32 10° NNW
ARGOS 3.4 20:36:41 63° NW 20:36:41 63° NW 20:41:16 10° NNW
CZ-2C R/B 3.9 20:43:10 10° N 20:46:09 33° NNW 20:46:09 33° NNW
CZ-3A R/B 3.1 20:41:59 10° WNW 20:58:55 70° NW 20:58:55 70° NW
ATLAS 5 CENTAUR R/B 3.5 21:06:46 10° WNW 21:13:05 61° N 21:14:55 56° NE
